Regional Weather Roundup
Issued by NWS

Home | Current Version | Previous Version | Graphics & Text | Print | Product List | Glossary On
Versions: 1 2 3 4 5 6 7 8 9 10 11 12 13 14 15 16 17 18 19 20 21 22 23 24 25 26 27 28
000
ASUS45 KSLC 172210
RWRUT

UTAH REGIONAL WEATHER ROUNDUP
NATIONAL WEATHER SERVICE SALT LAKE CITY UT
400 PM MDT THU APR 17 2014

UTZ001>011-023>025-172300-

NORTHERN UTAH

CITY           SKY/WX    TMP DP  RH WIND       PRES   REMARKS
HILL AFB       SUNNY     65  21  18 S9        29.96F
LOGAN          SUNNY     64  28  25 W14       29.96F
OGDEN          SUNNY     68  25  19 S10G17    29.94F
PROVO AIRPORT  MOSUNNY   66  28  24 S3        29.97F
SALT LAKE CITY PTSUNNY   69  26  20 SE20      29.93F
VERNAL         SUNNY     63  21  20 SW12G18   30.00F
WENDOVER       SUNNY     70  27  19 E12       29.90F
HEBER CITY     MOSUNNY   64  25  22 W15       29.98F
WEST JORDAN    SUNNY     66  34  30 SE16G24   29.95F

$$

UTZ012>022-026-027-172300-

SOUTHERN UTAH

CITY           SKY/WX    TMP DP  RH WIND       PRES   REMARKS
BRYCE CANYON   MOSUNNY   62  27  26 SE14G22   30.11F
CEDAR CITY     SUNNY     74  20  13 SW14G22   29.97F
MILFORD        SUNNY     74  22  14 S8G16     29.94F
MOAB/CYNLANDS  SUNNY     70  18  13 W7        29.99F
PRICE          SUNNY     64  17  16 SE9       30.03F
ST GEORGE      PTCLDY    82  28  14 NW5       29.88F
KANAB            N/A     79  23  12 S8        30.00F

$$

REGIONAL REPORTS     COLORADO/ARIZONA

CITY           SKY/WX    TMP DP  RH WIND       PRES   REMARKS
CRAIG, CO      SUNNY     61  22  22 SW9       30.03F
GRAND JUNCTION SUNNY     64  21  19 W3        30.03F
RIFLE          SUNNY     65  19  17 W20       30.02F
MONTROSE       SUNNY     65  19  17 VRB6      30.06F
CORTEZ         SUNNY     66  16  14 NW12G21   30.09F
PAGE, AZ       SUNNY     78  27  15 NE9       29.96F
GRAND CANYON   MOSUNNY   72  18  13 SW16G23   30.08F
KINGMAN        SUNNY     85  14   7 SW25      29.93F
FLAGSTAFF      SUNNY     67  19  16 SW9G23    30.12F

$$

REGIONAL REPORTS    NEVADA/IDAHO/WYOMING

CITY           SKY/WX    TMP DP  RH WIND       PRES   REMARKS
LAS VEGAS, NV  MOSUNNY   89  23   9 VRB7      29.77F
ELY            SUNNY     70  24  17 SW18G31   29.96F
ELKO           SUNNY     73  27  18 SW9       29.85F
POCATELLO, ID  SUNNY     67  21  17 S12G25    29.91F
BURLEY         SUNNY     71  30  21 S16G22    29.83F
EVANSTON, WY   SUNNY     58  23  26 SW16G36   30.02F
ROCK SPRINGS   NOT AVBL

$$



USA.gov is the U.S. government's official web portal to all federal, state and local government web resources and services.